COSMOS 2526

Last updated on Fri Jul 10 2026 00:03:05 GMT+0000 (Coordinated Universal Time)

1 43432U 18037A 26190.59425925 -.00000334 00000+0 00000+0 0 9993 2 43432 0.0315 92.7031 0001344 101.5058 75.2973 1.00247115 30187
UTC large
Height (km)
Speed (km/s)
/
Latitude / Longitude
Inclination (degrees)
Orbital Period (minutes)
Azimuth
Elevation
Range (km)
Doppler Factor

Next 0 passes for location: London (51.5072 / 0.1276)

No passes found over London.
COSMOS 2526